This is the latest recevied weather packets stored in our database for station/object KG5MMT-12. If no packets are shown the sender has not sent any weather packets the latest 1 day(s).
| Time | Temp. | Humidity | Pressure | Rain* | Wind** | Luminosity | Snow |
|---|---|---|---|---|---|---|---|
| 1778046228 | 7.22° C | 71% | 0 hPa | 0.25 mm | - | - | - |
| 1778045930 | 6.67° C | 71% | 0 hPa | 0.25 mm | - | - | - |
| 1778045628 | 6.67° C | 71% | 0 hPa | 0.25 mm | - | - | - |
| 1778045330 | 7.22° C | 69% | 0 hPa | 0.25 mm | - | - | - |
| 1778044729 | 7.78° C | 67% | 0 hPa | 0.25 mm | - | - | - |
| 1778043828 | 8.33° C | 68% | 0 hPa | 0 mm | - | - | - |
| 1778043528 | 8.33° C | 68% | 0 hPa | 0 mm | - | - | - |
| 1778043228 | 8.33° C | 68% | 0 hPa | 0 mm | - | - | - |
| 1778042928 | 8.33° C | 67% | 0 hPa | 0.25 mm | - | - | - |
| 1778042328 | 8.33° C | 67% | 0 hPa | 0.25 mm | - | - | - |
| 1778038729 | 7.22° C | 79% | 0 hPa | 0.51 mm | - | - | - |
| 1778038429 | 7.78° C | 79% | 0 hPa | 0.51 mm | - | - | - |
| 1778038129 | 8.33° C | 74% | 0 hPa | 0.25 mm | - | - | - |
| 1778037829 | 8.89° C | 65% | 0 hPa | 0 mm | - | - | - |
| 1778037529 | 9.44° C | 59% | 0 hPa | 0 mm | - | - | - |
| 1778037229 | 10° C | 58% | 0 hPa | 0 mm | - | - | - |
| 1778036929 | 10° C | 58% | 0 hPa | 0 mm | - | - | - |
| 1778036629 | 10° C | 58% | 0 hPa | 0 mm | - | - | - |
| 1778036329 | 10° C | 57% | 0 hPa | 0 mm | - | - | - |
| 1778036029 | 10° C | 58% | 0 hPa | 0 mm | - | - | - |
| 1778035729 | 9.44° C | 59% | 0 hPa | 0 mm | - | - | - |
| 1778035429 | 10° C | 60% | 0 hPa | 0 mm | - | - | - |
| 1778035129 | 10° C | 59% | 0 hPa | 0 mm | - | - | - |
| 1778034829 | 10° C | 58% | 0 hPa | 0 mm | - | - | - |
| 1778034529 | 10.56° C | 56% | 0 hPa | 0 mm | - | - | - |
* Rain latest hour (hover to see other rain measurements)
** Current wind speed in m/s (hover to see current wind gust speed)